Regional Weather Roundup
Issued by NWS

Home | Current Version | Previous Version | Graphics & Text | Print | Product List | Glossary On
Versions: 1 2 3 4 5 6 7 8 9 10 11 12 13 14 15 16 17 18 19 20 21 22 23 24 25 26 27 28 29 30 31 32 33 34 35 36 37 38 39 40 41 42 43 44 45 46 47 48 49 50
000
ASUS43 KMKX 012200
RWRWI

WISCONSIN REGIONAL WEATHER ROUNDUP
NATIONAL WEATHER SERVICE MILWAUKEE/SULLIVAN WI
500 PM CDT SAT AUG 01 2015

NOTE: "FAIR" INDICATES FEW OR NO CLOUDS BELOW 12,000 FEET WITH NO
SIGNIFICANT WEATHER AND/OR OBSTRUCTIONS TO VISIBILITY.

WIZ001-002-006>008-014>016-023>028-012300-
NORTHWEST WISCONSIN

CITY           SKY/WX    TMP DP  RH WIND       PRES   REMARKS
SUPERIOR ARPT  SUNNY     82  56  40 W14       29.81F HX  81
ASHLAND        MOSUNNY   82  54  37 W12G21    29.82F HX  81
HAYWARD        SUNNY     80  50  34 SW10G17   29.87F HX  80
SIREN          MOSUNNY   81  51  35 SW7       29.87F HX  80
CUMBERLAND     SUNNY     77  50  38 W10       29.89F
RICE LAKE      SUNNY     80  52  37 SW8       29.90F HX  80
CHETEK         MOSUNNY  N/A N/A N/A CALM      29.89F
LADYSMITH      SUNNY     80  53  38 SW9G18    29.90F HX  80
EAU CLAIRE     NOT AVBL
MENOMONIE      MOSUNNY   83  56  38 SW10      29.89F HX  83
NEW RICHMOND   PTSUNNY   82  50  32 W7        29.89F HX  81
OSCEOLA        MOSUNNY   82  55  40 SW6       29.90F HX  81
$$

WIZ003>005-009-010-017-018-012300-
NORTH CENTRAL WISCONSIN

CITY           SKY/WX    TMP DP  RH WIND       PRES   REMARKS
MANITOWISH WTR PTSUNNY   74  51  44 W7        29.87F
ARBOR VITAE    MOSUNNY   77  51  40 NW9G20    29.88S
WOODRUFF       MOSUNNY   77  51  40 NW9G20    29.88S
RHINELANDER    MOSUNNY   80  49  33 W15       29.88F
EAGLE RIVER    MOSUNNY   76  48  36 W8        29.87F
LAND O LAKES   SUNNY     77  45  31 NW10G17   29.87F
PHILLIPS       SUNNY     77  54  44 SW10      29.88F
TOMAHAWK       MOSUNNY   77  52  42 W10       29.90F
MEDFORD        SUNNY     77  53  43 W10       29.91F
MERRILL        NOT AVBL
$$

WIZ029-030-035-036-043>047-012300-
CENTRAL WISCONSIN

CITY           SKY/WX    TMP DP  RH WIND       PRES   REMARKS
WAUSAU         MOSUNNY   79  51  37 W13       29.88F
MOSINEE        NOT AVBL
MARSHFIELD     SUNNY     81  51  35 W10       29.90F HX  80
STEVENS POINT  SUNNY     79  51  37 W8        29.90F
WAUPACA        SUNNY     85  46  25 NW13      29.89F HX  82
WAUTOMA        NOT AVBL
WISC RAPIDS    SUNNY     84  49  29 W12       29.90F HX  82
CAMP DOUGLAS   NOT AVBL
$$

WIZ011>013-019>022-031-037>040-048>050-012300-
NORTHEAST WISCONSIN

CITY           SKY/WX    TMP DP  RH WIND       PRES   REMARKS
ANTIGO         MOSUNNY   75  50  40 W12G21    29.90F
SHAWANO        MOSUNNY   82  48  31 NW9       29.87F HX  80
OCONTO         MOSUNNY   83  49  30 W14       29.84F HX  81
STURGEON BAY   SUNNY     81  52  36 W14       29.87S HX  80
GREEN BAY      MOSUNNY   82  51  34 W13       29.87F HX  81
MANITOWOC      NOT AVBL
APPLETON       MOSUNNY   81  45  28 W14G21    29.89F
CLINTONVILLE   MOSUNNY   82  45  26 W14       29.87F HX  80
OSHKOSH        SUNNY     83  51  33 W12       29.88F HX  81
$$

WIZ032>034-041-042-053>061-012300-
SOUTHWEST WISCONSIN

CITY           SKY/WX    TMP DP  RH WIND       PRES   REMARKS
LA CROSSE      SUNNY     86  61  42 W8        29.89F HX  86
SPARTA         SUNNY     84  54  35 W8G16     29.91F HX  83
VIROQUA        SUNNY     82  61  48 W9        29.94S HX  83
BOSCOBEL       SUNNY     89  61  38 NW8       29.90F HX  89
PRAIRIE DU CHI SUNNY     87  56  34 W9        29.91F HX  85
PLATTEVILLE    MOSUNNY   85  63  46 W13G18    29.93F HX  86
$$

WIZ056-057-062-063-064-067-068-012300-
SOUTH CENTRAL WISCONSIN

CITY           SKY/WX    TMP DP  RH WIND       PRES   REMARKS
REEDSBURG      SUNNY     85  59  41 NW12      29.90F HX  85
BARABOO/DELLS  SUNNY     85  51  30 NW13      29.91S HX  83
LONE ROCK      NOT AVBL
MINERAL POINT  SUNNY     86  55  35 NW9G17    29.94S HX  84
MADISON        MOSUNNY   86  61  42 NW8       29.90F HX  86
MIDDLETON      SUNNY     86  54  33 NW8       29.91F HX  84
WATERTOWN      MOSUNNY   82  64  53 W9        29.90F HX  83
MONROE         SUNNY     86  57  37 W12G22    29.93S HX  85
JANESVILLE     NOT AVBL
$$

WIZ051-052-058>065-066-070>072-012300-
SOUTHEAST WISCONSIN

CITY           SKY/WX    TMP DP  RH WIND       PRES   REMARKS
MILWAUKEE      MOSUNNY   85  56  37 W13       29.89F HX  84
WAUKESHA       MOSUNNY   81  55  41 W12       29.92F HX  80
MILWAUKEE/TIMM MOSUNNY   82  54  36 W10G22    29.90F HX  81
RACINE         PTSUNNY   80  57  45 SE8       29.91F HX  80
BURLINGTON     MOSUNNY   83  58  42 W8        29.90F HX  83
KENOSHA        PTSUNNY   83  62  49 W10       29.90F HX  84
FOND DU LAC    MOSUNNY   83  55  38 W9        29.89F HX  82
SHEBOYGAN      MOSUNNY   80  54  40 W12       29.88F HX  80
WEST BEND      SUNNY     79  50  36 W10       29.91S
JUNEAU         SUNNY     80  58  47 SW6       29.92F HX  80
$$

LSZ147-162-012300-
LAKE SUPERIOR

STATION/POSITION TIME  TEMP    WIND        PRES    WAVE
                       AIR SEA DIR/SP/G            HT/PER
                 (UTC) (F)     (DEG/KT/KT) (MB)    (FT/S)
W MID LAKE BUOY  2050   60 54  210/ 12/ 12 1009.0F   2/ 3
DEVILS ISLAND    2100   73     230/ 13/ 16 1009.3F
PORT WING        2100   79     240/  9/ 13 1010.2F
SAXON HARBOR     2100   78                 1010.2
$$

LMZ867-665-643>646-012300-
LAKE MICHIGAN

STATION/POSITION TIME  TEMP    WIND        PRES    WAVE
                       AIR SEA DIR/SP/G            HT/PER
                 (UTC) (F)     (DEG/KT/KT) (MB)    (FT/S)
CHAMBERS ISLAND  2100   79     250/  8/  9 1010.2F
S GREEN BAY BUOY 2130   74 72  280/ 10/ 12 1012.3F
N MID LAKE BUOY  2050   70 68  200/ 12/ 14 1010.0F   1/ 3
NORTHPORT PIER   2100   81     220/  7/ 12 1010.2F
SISTER BAY       2059   83     260/  7/  8   N/A
ALGOMA LAKESHORE 2112          290/  8/ 14   N/A
KEWAUNEE LAKESHO 2100   80     300/ 11/ 16 1011.0F
SHEBOYGAN LAKESH 2100   80     290/ 15/ 20 1011.9F
PORT WASHINGTON  2140   85     290/  7/ 14 1012.9S
ATWATER BUOY     2100   78 67  260/ 12/ 14 1014.0F
MILWAUKEE LAKESH 2100   80     290/  9/ 12   N/A
KENOSHA   LAKESH 2100   74     130/  8/ 12 1012.5S
$$

TC  - TEMPERATURE IN CELSIUS
VSB - VISIBILITY IN STATUTE MILES
WCI - WIND CHILL INDEX
HX  - HEAT INDEX



USA.gov is the U.S. government's official web portal to all federal, state and local government web resources and services.